Date String (YYYY-MM-DD hh:mm:ss) UTC,Instrument flags,absolute air pressure of the measurement (hPa),sample flow rate (lpm),inlet stack bypass flow (lpm),air temperature of the measurement (°C),ambient temperature measured by the external sensor (°C),aerosol sample conditioner tube jacket temperature (°C),OPC LED temperature (°C),internal box temperature (°C),relative humidity of the measurement (%),span deviation,mass concentration of particles derived from Lorenz-Mie calculation of OPC scattering (μg/m³),mass concentration of particles derived from Lorenz-Mie calculation of OPC scattering (μg/m³),mass concentration of particles derived from Lorenz-Mie calculation of OPC scattering (μg/m³)
DateTimeUTC,F1_M11,P_M11,Q1_M11,Q2_M11,T1_M11,T2_M11,T3_M11,T4_M11,T5_M11,U1_M11,ZSPAN_M11,X2_M11,X0_M11,X1_M11
2023-09-11 22:00:00,SystemResetWarning,0836.4,4.99,000.00,028.4,026.3,000.0,036.7,029.9,30.4,0000.3,0006.05,0009.90,0005.69
2023-09-11 22:01:00,SystemResetWarning,0836.4,5.00,000.00,028.4,026.6,000.0,036.7,030.0,30.1,0000.0,0006.05,0009.90,0005.71
2023-09-11 22:02:00,SystemResetWarning,0836.4,5.01,000.00,028.4,026.8,000.0,036.8,030.0,30.2,-000.0,0006.08,0009.92,0005.76
2023-09-11 22:03:00,SystemResetWarning,0836.4,5.00,000.00,028.5,027.0,000.0,036.8,030.1,30.6,-000.1,0006.10,0009.96,0005.79
2023-09-11 22:04:00,SystemResetWarning,0836.4,5.01,000.00,028.5,027.2,000.0,036.8,030.2,30.2,-000.0,0006.10,0009.98,0005.80
2023-09-11 22:05:00,SystemResetWarning,0836.4,4.99,000.00,028.5,027.3,000.0,036.8,030.2,30.0,-000.2,0006.07,0009.94,0005.78
2023-09-11 22:06:00,SystemResetWarning,0836.4,4.99,000.00,028.6,027.5,000.0,036.8,030.3,29.6,-000.2,0006.04,0009.91,0005.75
2023-09-11 22:07:00,SystemResetWarning,0836.4,5.00,000.00,028.6,027.6,000.0,036.8,030.4,28.9,-000.3,0006.01,0009.72,0005.72
2023-09-11 22:08:00,SystemResetWarning,0836.3,5.00,000.00,028.6,026.6,000.0,036.8,030.2,29.2,-000.4,0005.98,0009.46,0005.70
2023-09-11 22:09:00,SystemResetWarning,0836.3,5.00,000.00,028.6,024.9,000.0,036.7,029.8,28.9,-000.7,0005.98,0009.33,0005.71
2023-09-11 22:10:00,SystemResetWarning,0836.3,5.00,000.00,028.5,024.2,000.0,036.6,029.7,28.9,-000.9,0005.96,0009.22,0005.71
2023-09-11 22:11:00,SystemResetWarning,0836.2,5.01,000.00,028.4,024.3,000.0,036.6,029.6,28.9,-000.9,0005.95,0009.01,0005.71
2023-09-11 22:12:00,SystemResetWarning,0836.2,5.01,000.00,028.3,024.7,000.0,036.6,029.5,28.6,-000.8,0005.94,0009.00,0005.69
2023-09-11 22:13:00,SystemResetWarning,0836.2,5.00,000.00,028.2,025.1,000.0,036.6,029.6,29.1,-000.9,0005.88,0008.87,0005.64
2023-09-11 22:14:00,SystemResetWarning,0836.2,5.00,000.00,028.2,025.6,000.0,036.6,029.7,30.2,-001.2,0005.87,0008.95,0005.62
2023-09-11 22:15:00,SystemResetWarning,0836.3,5.00,000.00,028.2,026.0,000.0,036.6,029.7,31.0,-001.0,0005.88,0009.60,0005.62
2023-09-11 22:16:00,SystemResetWarning,0836.3,5.00,000.00,028.2,026.3,000.0,036.6,029.8,30.5,-000.9,0005.87,0010.05,0005.61
2023-09-11 22:17:00,SystemResetWarning,0836.2,4.99,000.00,028.3,026.6,000.0,036.6,029.9,29.7,-000.9,0005.84,0010.41,0005.60
2023-09-11 22:18:00,SystemResetWarning,0836.2,5.00,000.00,028.3,026.8,000.0,036.6,030.0,30.0,-000.8,0005.86,0010.55,0005.60
2023-09-11 22:19:00,SystemResetWarning,0836.3,4.99,000.00,028.3,027.0,000.0,036.7,030.0,29.9,-000.6,0005.86,0010.58,0005.58
2023-09-11 22:20:00,SystemResetWarning,0836.2,5.00,000.00,028.4,027.2,000.0,036.7,030.1,30.2,-000.1,0005.83,0010.55,0005.55
2023-09-11 22:21:00,SystemResetWarning,0836.3,5.00,000.00,028.4,027.3,000.0,036.7,030.2,30.5,-000.1,0005.81,0010.55,0005.52
2023-09-11 22:22:00,SystemResetWarning,0836.3,5.00,000.00,028.5,027.4,000.0,036.7,030.2,30.1,-000.3,0005.79,0010.52,0005.48
2023-09-11 22:23:00,SystemResetWarning,0836.2,5.00,000.00,028.5,027.5,000.0,036.7,030.3,30.5,-000.4,0005.81,0010.56,0005.47
2023-09-11 22:24:00,SystemResetWarning,0836.2,5.00,000.00,028.6,027.6,000.0,036.7,030.3,30.9,-000.5,0005.82,0010.60,0005.48
2023-09-11 22:25:00,SystemResetWarning,0836.2,4.98,000.00,028.6,026.8,000.0,036.7,030.2,30.9,-000.3,0005.79,0010.49,0005.46
2023-09-11 22:26:00,SystemResetWarning,0836.2,5.00,000.00,028.5,025.4,000.0,036.7,029.9,30.8,-000.8,0005.78,0009.83,0005.45
2023-09-11 22:27:00,SystemResetWarning,0836.2,5.00,000.00,028.5,025.1,000.0,036.6,029.9,30.0,-000.8,0005.78,0009.43,0005.44
2023-09-11 22:28:00,SystemResetWarning,0836.2,5.01,000.00,028.4,025.3,000.0,036.6,029.8,30.3,-001.1,0005.79,0009.01,0005.45
2023-09-11 22:29:00,SystemResetWarning,0836.1,5.01,000.00,028.3,025.6,000.0,036.7,029.8,30.5,-001.4,0005.76,0008.90,0005.44
2023-09-11 22:30:00,SystemResetWarning,0836.1,5.00,000.00,028.3,025.9,000.0,036.7,029.8,30.4,-001.4,0005.77,0008.86,0005.47
2023-09-11 22:31:00,SystemResetWarning,0836.2,5.00,000.00,028.3,026.3,000.0,036.7,029.9,29.8,-001.6,0005.81,0008.94,0005.49
2023-09-11 22:32:00,SystemResetWarning,0836.2,5.00,000.00,028.4,026.6,000.0,036.7,030.0,29.7,-001.4,0005.81,0008.93,0005.49
2023-09-11 22:33:00,SystemResetWarning,0836.2,5.01,000.00,028.4,026.8,000.0,036.7,030.1,29.4,-001.3,0005.82,0008.93,0005.51
2023-09-11 22:34:00,SystemResetWarning,0836.2,5.01,000.00,028.4,027.0,000.0,036.7,030.1,29.9,-001.0,0005.81,0008.88,0005.52
2023-09-11 22:35:00,SystemResetWarning,0836.1,5.00,000.00,028.5,027.2,000.0,036.7,030.2,30.4,-000.7,0005.82,0008.88,0005.54
2023-09-11 22:36:00,SystemResetWarning,0836.2,5.00,000.00,028.5,027.3,000.0,036.7,030.2,30.5,-000.7,0005.85,0008.98,0005.55
2023-09-11 22:37:00,SystemResetWarning,0836.2,5.00,000.00,028.5,027.5,000.0,036.7,030.3,29.9,-000.9,0005.87,0009.06,0005.58
2023-09-11 22:38:00,SystemResetWarning,0836.2,4.99,000.00,028.6,027.1,000.0,036.7,030.3,29.7,-001.0,0005.88,0009.05,0005.58
2023-09-11 22:39:00,SystemResetWarning,0836.1,5.00,000.00,028.5,025.6,000.0,036.7,030.0,30.0,-000.8,0005.88,0009.21,0005.58
2023-09-11 22:40:00,SystemResetWarning,0836.1,5.01,000.00,028.5,025.0,000.0,036.6,029.9,30.8,-000.6,0005.90,0009.42,0005.58
2023-09-11 22:41:00,SystemResetWarning,0836.1,5.01,000.00,028.4,025.1,000.0,036.6,029.8,31.2,-000.6,0005.89,0009.40,0005.55
2023-09-11 22:42:00,SystemResetWarning,0836.1,5.00,000.00,028.3,025.4,000.0,036.6,029.8,30.4,-000.6,0005.85,0009.40,0005.51
2023-09-11 22:43:00,SystemResetWarning,0836.1,5.01,000.00,028.3,025.8,000.0,036.7,029.8,29.8,-000.5,0005.80,0009.31,0005.48
2023-09-11 22:44:00,SystemResetWarning,0836.1,4.99,000.00,028.3,026.1,000.0,036.7,029.9,29.9,-000.5,0005.77,0009.29,0005.46
2023-09-11 22:45:00,SystemResetWarning,0836.1,4.99,000.00,028.4,026.4,000.0,036.7,029.9,30.2,-001.0,0005.75,0009.27,0005.44
2023-09-11 22:46:00,SystemResetWarning,0836.1,5.00,000.00,028.4,026.7,000.0,036.7,030.0,29.8,-001.3,0005.71,0009.27,0005.41
2023-09-11 22:47:00,SystemResetWarning,0836.1,5.00,000.00,028.4,026.9,000.0,036.7,030.1,30.2,-001.2,0005.67,0009.19,0005.37
2023-09-11 22:48:00,SystemResetWarning,0836.1,5.01,000.00,028.4,027.1,000.0,036.7,030.2,29.6,-000.8,0005.62,0009.05,0005.33
2023-09-11 22:49:00,SystemResetWarning,0836.1,5.01,000.00,028.5,027.3,000.0,036.7,030.2,29.8,-000.5,0005.60,0009.00,0005.31
2023-09-11 22:50:00,SystemResetWarning,0836.1,5.00,000.00,028.5,027.4,000.0,036.7,030.3,29.3,-000.6,0005.58,0008.87,0005.28
2023-09-11 22:51:00,SystemResetWarning,0836.1,5.00,000.00,028.6,027.4,000.0,036.8,030.3,29.3,-000.7,0005.55,0008.56,0005.26
2023-09-11 22:52:00,SystemResetWarning,0836.1,4.98,000.00,028.6,026.1,000.0,036.7,030.0,29.5,-000.6,0005.60,0008.69,0005.28
2023-09-11 22:53:00,SystemResetWarning,0836.1,5.02,000.00,028.5,025.0,000.0,036.6,029.8,29.5,-000.3,0005.62,0008.67,0005.31
2023-09-11 22:54:00,SystemResetWarning,0836.1,5.01,000.00,028.4,024.9,000.0,036.6,029.7,29.6,-000.3,0005.65,0008.67,0005.35
2023-09-11 22:55:00,SystemResetWarning,0836.1,4.99,000.00,028.3,025.2,000.0,036.6,029.6,30.0,-000.6,0005.69,0008.69,0005.39
2023-09-11 22:56:00,SystemResetWarning,0836.1,4.99,000.00,028.3,025.5,000.0,036.6,029.6,30.3,-000.0,0005.69,0008.70,0005.40
2023-09-11 22:57:00,SystemResetWarning,0836.1,5.01,000.00,028.3,025.9,000.0,036.6,029.8,30.4,0000.5,0005.70,0008.64,0005.42
2023-09-11 22:58:00,SystemResetWarning,0836.1,5.01,000.00,028.3,026.2,000.0,036.6,029.9,30.2,0000.4,0005.76,0008.70,0005.45
2023-09-11 22:59:00,SystemResetWarning,0836.1,4.99,000.00,028.3,026.5,000.0,036.7,029.9,30.6,0000.3,0005.83,0008.76,0005.52
